GW5979 Weather Reports


Display with metric or nautical units.
time (UTC)temp
F
wind
direction
speed
MPH
gust
MPH
rain 1hr
in
rain 24hr
in
rain mn
in
humidity
%
barometer
mb
20260507191540 66 15 8.0 9.0 0.00 0.00 0.00 23 1014.1
20260507191038 65 281 7.0 8.0 0.00 0.00 0.00 24 1014.1
20260507190535 64 327 3.0 6.0 0.00 0.00 0.00 26 1014.5
20260507190034 64 239 6.0 16.0 0.00 0.00 0.00 24 1014.3
20260507185531 65 207 1.0 4.0 0.00 0.00 0.00 23 1014.6
20260507185028 65 228 2.0 5.0 0.00 0.00 0.00 25 1014.4
20260507184526 64 314 3.0 5.0 0.00 0.00 0.00 24 1014.6
20260507184024 64 199 4.0 5.0 0.00 0.00 0.00 23 1014.5
20260507183519 63 174 4.0 8.0 0.00 0.00 0.00 23 1014.5
20260507183017 63 196 4.0 6.0 0.00 0.00 0.00 23 1014.5
20260507182513 62 258 6.0 8.0 0.00 0.00 0.00 25 1014.5
20260507182009 63 179 2.0 5.0 0.00 0.00 0.00 23 1014.5
20260507181506 63 193 4.0 6.0 0.00 0.00 0.00 22 1014.5
20260507181002 62 160 5.0 6.0 0.00 0.00 0.00 22 1014.9
20260507180458 62 328 2.0 6.0 0.00 0.00 0.00 23 1014.9
20260507175955 63 324 2.0 3.0 0.00 0.00 0.00 22 1015.1
20260507175452 63 356 2.0 5.0 0.00 0.00 0.00 23 1015.0
20260507174949 62 215 6.0 7.0 0.00 0.00 0.00 22 1015.0
20260507174446 61 317 5.0 7.0 0.00 0.00 0.00 24 1015.0
20260507173943 62 283 4.0 9.0 0.00 0.00 0.00 23 1015.2
20260507173440 62 92 0.0 8.0 0.00 0.00 0.00 22 1015.0
20260507172938 62 335 4.0 9.0 0.00 0.00 0.00 20 1015.5
20260507172434 61 291 0.0 3.0 0.00 0.00 0.00 24 1015.2
20260507171930 60 17 3.0 7.0 0.00 0.00 0.00 22 1015.2
20260507171426 62 333 2.0 4.0 0.00 0.00 0.00 20 1015.7
20260507170924 61 317 4.0 9.0 0.00 0.00 0.00 23 1015.5
20260507170420 63 335 0.0 4.0 0.00 0.00 0.00 23 1015.4
20260507165917 62 343 5.0 5.0 0.00 0.00 0.00 21 1015.6
20260507165413 61 299 5.0 8.0 0.00 0.00 0.00 21 1015.6
20260507164908 60 297 3.0 4.0 0.00 0.00 0.00 24 1015.4
20260507164406 60 330 6.0 9.0 0.00 0.00 0.00 22 1015.8
20260507163903 62 302 2.0 5.0 0.00 0.00 0.00 25 1015.6
20260507163400 60 221 2.0 5.0 0.00 0.00 0.00 24 1015.6
20260507162857 59 329 2.0 8.0 0.00 0.00 0.00 25 1015.6
20260507162352 60 320 4.0 6.0 0.00 0.00 0.00 24 1015.7
20260507161850 61 39 1.0 5.0 0.00 0.00 0.00 25 1015.6
20260507161346 60 231 3.0 5.0 0.00 0.00 0.00 27 1015.6
20260507160843 58 283 3.0 6.0 0.00 0.00 0.00 28 1015.7
20260507160338 58 336 4.0 6.0 0.00 0.00 0.00 28 1016.1
20260507155835 58 285 2.0 5.0 0.00 0.00 0.00 27 1016.0
20260507155330 57 266 2.0 11.0 0.00 0.00 0.00 28 1015.8
20260507154827 58 319 4.0 6.0 0.00 0.00 0.00 28 1016.1
20260507154325 58 47 2.0 5.0 0.00 0.00 0.00 30 1016.0
20260507153821 58 73 2.0 8.0 0.00 0.00 0.00 30 1015.7
20260507153318 55 16 3.0 9.0 0.00 0.00 0.00 32 1015.7
20260507152815 55 319 4.0 7.0 0.00 0.00 0.00 31 1016.0
20260507152311 55 316 5.0 13.0 0.00 0.00 0.00 33 1015.8
20260507151807 55 302 4.0 8.0 0.00 0.00 0.00 32 1016.1
20260507151303 54 314 3.0 9.0 0.00 0.00 0.00 33 1015.7
20260507150800 53 299 7.0 9.0 0.00 0.00 0.00 34 1015.7
20260507150257 53 310 4.0 8.0 0.00 0.00 0.00 34 1016.0
20260507145753 53 335 4.0 11.0 0.00 0.00 0.00 35 1015.7
20260507145250 53 307 6.0 6.0 0.00 0.00 0.00 35 1016.2
20260507144747 52 320 6.0 9.0 0.00 0.00 0.00 35 1016.0
20260507144244 52 259 4.0 9.0 0.00 0.00 0.00 37 1016.0
20260507143740 52 79 3.0 6.0 0.00 0.00 0.00 37 1016.0
20260507143238 52 357 2.0 3.0 0.00 0.00 0.00 36 1016.0
20260507142734 51 327 3.0 8.0 0.00 0.00 0.00 37 1016.0
20260507142230 51 333 4.0 8.0 0.00 0.00 0.00 36 1016.1
20260507141727 50 340 5.0 7.0 0.00 0.00 0.00 37 1016.1
20260507141224 50 311 2.0 4.0 0.00 0.00 0.00 38 1016.1
20260507140720 49 321 2.0 4.0 0.00 0.00 0.00 38 1016.2
20260507140218 48 0 2.0 6.0 0.00 0.00 0.00 38 1016.1
20260507135714 48 323 3.0 6.0 0.00 0.00 0.00 38 1016.3
20260507135212 48 316 2.0 5.0 0.00 0.00 0.00 39 1016.2
20260507134708 47 329 3.0 3.0 0.00 0.00 0.00 40 1016.0
20260507134204 46 344 2.0 5.0 0.00 0.00 0.00 41 1016.0
20260507133700 46 347 2.0 4.0 0.00 0.00 0.00 42 1015.8
20260507133158 46 5 1.0 3.0 0.00 0.00 0.00 43 1015.8
20260507132655 45 334 4.0 4.0 0.00 0.00 0.00 45 1015.8
20260507132151 44 359 2.0 6.0 0.00 0.00 0.00 45 1015.7
20260507131648 42 349 2.0 4.0 0.00 0.00 0.00 48 1016.0
20260507131146 42 342 5.0 5.0 0.00 0.00 0.00 48 1015.7
20260507130642 41 336 2.0 4.0 0.00 0.00 0.00 50 1015.6
20260507130140 40 9 4.0 4.0 0.00 0.00 0.00 51 1015.6
20260507125638 40 354 2.0 2.0 0.00 0.00 0.00 50 1015.6
20260507125136 41 358 1.0 2.0 0.00 0.00 0.00 50 1015.6
20260507124632 40 84 1.0 2.0 0.00 0.00 0.00 53 1015.6
20260507124130 38 23 0.0 2.0 0.00 0.00 0.00 53 1015.6
20260507123628 37 13 2.0 4.0 0.00 0.00 0.00 54 1015.6
20260507123125 37 314 2.0 3.0 0.00 0.00 0.00 55 1015.5
20260507122620 36 44 0.0 2.0 0.00 0.00 0.00 57 1015.4
20260507122116 35 30 1.0 3.0 0.00 0.00 0.00 58 1015.1
20260507121612 35 11 4.0 5.0 0.00 0.00 0.00 57 1015.4
20260507121108 35 14 2.0 4.0 0.00 0.00 0.00 56 1015.2
20260507120604 35 41 1.0 3.0 0.00 0.00 0.00 55 1015.0
20260507120101 35 352 2.0 4.0 0.00 0.00 0.00 54 1015.2
20260507115557 36 343 3.0 5.0 0.00 0.00 0.00 53 1015.4
20260507115053 35 334 3.0 5.0 0.00 0.00 0.00 54 1015.2
20260507114549 35 24 2.0 4.0 0.00 0.00 0.00 55 1015.4
20260507114046 35 352 2.0 4.0 0.00 0.00 0.00 56 1015.5
20260507113543 34 346 3.0 6.0 0.00 0.00 0.00 56 1015.4
20260507113041 34 12 2.0 5.0 0.00 0.00 0.00 57 1015.4
20260507112538 34 28 2.0 5.0 0.00 0.00 0.00 57 1015.4
20260507112035 33 2 0.0 3.0 0.00 0.00 0.00 58 1015.5
20260507111532 34 30 2.0 6.0 0.00 0.00 0.00 58 1015.4
20260507111029 34 5 2.0 3.0 0.00 0.00 0.00 59 1015.2
20260507110525 34 0 4.0 4.0 0.00 0.00 0.00 59 1015.2
20260507110021 33 8 4.0 5.0 0.00 0.00 0.00 60 1015.4
20260507105519 33 19 3.0 4.0 0.00 0.00 0.00 62 1015.2
20260507105014 33 359 2.0 4.0 0.00 0.00 0.00 62 1015.5
20260507104513 33 11 2.0 3.0 0.00 0.00 0.00 63 1015.4
20260507104008 33 2 2.0 3.0 0.00 0.00 0.00 62 1015.4
20260507103505 33 1 0.0 5.0 0.00 0.00 0.00 61 1015.4
20260507103001 33 6 2.0 3.0 0.00 0.00 0.00 61 1015.5
20260507102458 33 329 2.0 4.0 0.00 0.00 0.00 63 1015.4
20260507101954 33 13 2.0 4.0 0.00 0.00 0.00 63 1015.6
20260507101449 33 355 2.0 4.0 0.00 0.00 0.00 64 1015.6
20260507100946 32 0 0.0 2.0 0.00 0.00 0.00 66 1015.6
20260507100444 32 9 2.0 3.0 0.00 0.00 0.00 67 1015.7
20260507095942 32 24 0.0 2.0 0.00 0.00 0.00 69 1015.7
20260507095439 31 1 3.0 3.0 0.00 0.00 0.00 71 1015.6
20260507094936 32 135 0.0 2.0 0.00 0.00 0.00 69 1015.5
20260507094431 32 44 0.0 4.0 0.00 0.00 0.00 68 1015.5
20260507093929 32 336 1.0 3.0 0.00 0.00 0.00 69 1015.6
20260507093427 32 9 2.0 3.0 0.00 0.00 0.00 70 1015.6
20260507092925 31 324 1.0 3.0 0.00 0.00 0.00 72 1015.7
20260507092421 32 28 0.0 2.0 0.00 0.00 0.00 72 1015.7
20260507091918 32 7 2.0 3.0 0.00 0.00 0.00 71 1015.6
20260507091414 32 291 1.0 4.0 0.00 0.00 0.00 72 1015.6
20260507090910 32 19 3.0 6.0 0.00 0.00 0.00 74 1015.8
20260507090406 31 355 2.0 4.0 0.00 0.00 0.00 75 1015.5
20260507085903 31 3 4.0 6.0 0.00 0.00 0.00 76 1015.6
20260507085400 31 346 3.0 4.0 0.00 0.00 0.00 78 1015.7
20260507084857 31 347 3.0 6.0 0.00 0.00 0.00 80 1015.8
20260507084354 30 22 2.0 6.0 0.00 0.00 0.00 82 1016.0
20260507083851 30 340 1.0 3.0 0.00 0.00 0.00 83 1015.8
20260507083347 30 355 1.0 3.0 0.00 0.00 0.00 85 1015.8
20260507082844 29 10 5.0 5.0 0.00 0.00 0.00 92 1016.1
20260507082339 28 5 2.0 4.0 0.00 0.00 0.00 95 1016.2
20260507081837 28 39 1.0 2.0 0.00 0.00 0.00 96 1016.3
20260507081333 28 61 0.0 3.0 0.00 0.00 0.00 96 1016.1
20260507080830 28 14 2.0 2.0 0.00 0.00 0.00 96 1016.3
20260507080326 28 28 3.0 3.0 0.00 0.00 0.00 96 1016.3
20260507075821 27 99 0.0 2.0 0.00 0.00 0.00 96 1016.3
20260507075318 27 6 2.0 2.0 0.00 0.00 0.00 96 1016.3
20260507074814 27 163 2.0 2.0 0.00 0.00 0.00 96 1016.5
20260507074312 27 150 1.0 2.0 0.00 0.00 0.00 96 1016.6
20260507073809 28 44 1.0 2.0 0.00 0.00 0.00 96 1016.7
20260507073306 28 9 1.0 2.0 0.00 0.00 0.00 96 1016.7
20260507072803 28 30 2.0 4.0 0.00 0.00 0.00 96 1016.6
20260507072300 28 34 3.0 3.0 0.00 0.00 0.00 96 1016.6
20260507071757 28 116 0.0 2.0 0.00 0.00 0.00 96 1016.8
20260507071254 28 77 0.0 2.0 0.00 0.00 0.00 96 1016.8
20260507070751 28 113 1.0 2.0 0.00 0.00 0.00 96 1016.8
20260507070248 28 57 2.0 2.0 0.00 0.00 0.00 96 1016.6
20260507065744 28 124 0.0 1.0 0.00 0.00 0.00 96 1016.8
20260507065241 28 57 1.0 2.0 0.00 0.00 0.00 96 1016.7
20260507064738 28 123 1.0 2.0 0.00 0.00 0.00 96 1016.8
20260507064237 29 123 2.0 3.0 0.00 0.00 0.00 96 1016.9
20260507063734 29 42 3.0 4.0 0.00 0.00 0.00 96 1016.9
20260507063231 29 19 2.0 4.0 0.00 0.00 0.00 96 1016.8
20260507062728 29 55 2.0 4.0 0.00 0.00 0.00 96 1017.1
20260507062225 29 41 2.0 3.0 0.00 0.00 0.00 96 1016.8
20260507061723 29 68 2.0 4.0 0.00 0.00 0.00 96 1016.7
20260507061221 29 118 2.0 3.0 0.00 0.00 0.00 96 1016.6
20260507060719 28 85 2.0 2.0 0.00 0.00 0.00 96 1016.8
20260507060215 28 127 2.0 2.0 0.00 0.00 0.00 96 1016.8
20260507055711 29 115 2.0 2.0 0.00 0.01 0.01 96 1016.9
20260507055207 29 11 2.0 3.0 0.00 0.01 0.01 96 1016.7
20260507054703 29 66 2.0 3.0 0.00 0.01 0.01 96 1016.5
20260507054159 29 54 2.0 2.0 0.00 0.01 0.01 96 1016.7
20260507053658 29 54 2.0 2.0 0.00 0.01 0.01 96 1016.8
20260507053156 29 35 0.0 2.0 0.00 0.01 0.01 96 1016.6
20260507052654 29 84 2.0 3.0 0.00 0.01 0.01 96 1016.6
20260507052150 29 124 2.0 3.0 0.00 0.01 0.01 95 1016.6
20260507051647 29 78 2.0 2.0 0.00 0.01 0.01 95 1016.6
20260507051144 29 55 2.0 3.0 0.00 0.01 0.01 95 1016.7
20260507050641 29 113 1.0 3.0 0.00 0.01 0.01 95 1016.6
20260507050138 30 74 2.0 3.0 0.00 0.01 0.01 95 1016.6
20260507045634 29 101 2.0 3.0 0.00 0.01 0.01 95 1016.3
20260507045131 29 57 1.0 2.0 0.00 0.01 0.01 95 1016.6
20260507044628 30 128 2.0 4.0 0.00 0.01 0.01 95 1016.6
20260507044125 30 80 2.0 2.0 0.00 0.01 0.01 95 1016.6
20260507043621 30 101 1.0 3.0 0.00 0.01 0.01 95 1016.7
20260507043118 30 98 3.0 3.0 0.00 0.01 0.01 95 1016.8
20260507042614 30 103 2.0 2.0 0.00 0.01 0.01 95 1016.5
20260507042110 30 122 3.0 5.0 0.00 0.01 0.01 95 1016.7
20260507041607 30 100 3.0 3.0 0.00 0.01 0.01 95 1016.7
20260507041104 30 86 2.0 2.0 0.00 0.01 0.01 95 1016.7
20260507040600 30 145 3.0 4.0 0.00 0.01 0.01 95 1016.6
20260507040057 31 118 2.0 4.0 0.00 0.01 0.01 95 1016.6
20260507035553 31 105 4.0 6.0 0.00 0.01 0.01 94 1016.7
20260507035049 31 120 2.0 6.0 0.00 0.01 0.01 94 1016.8
20260507034546 31 151 1.0 5.0 0.00 0.01 0.01 94 1016.7
20260507034044 31 126 3.0 5.0 0.00 0.01 0.01 94 1016.5
20260507033542 31 116 2.0 5.0 0.00 0.01 0.01 94 1016.7
20260507033038 31 164 2.0 4.0 0.00 0.01 0.01 93 1016.6
20260507032535 32 130 4.0 6.0 0.00 0.01 0.01 93 1016.7
20260507032032 32 108 1.0 5.0 0.00 0.01 0.01 92 1016.7
20260507031528 32 144 1.0 5.0 0.00 0.01 0.01 91 1016.3
20260507031026 32 151 4.0 5.0 0.00 0.01 0.01 90 1016.6
20260507030522 32 154 2.0 3.0 0.00 0.01 0.01 88 1016.5
20260507030020 32 146 3.0 6.0 0.00 0.01 0.01 87 1016.3
20260507025516 32 157 3.0 6.0 0.00 0.01 0.01 86 1016.3
20260507025014 32 160 2.0 4.0 0.00 0.01 0.01 85 1016.2
20260507024512 33 160 2.0 4.0 0.00 0.01 0.01 85 1016.3
20260507024008 33 180 4.0 5.0 0.00 0.01 0.01 85 1016.3
20260507023504 33 119 1.0 6.0 0.00 0.01 0.01 84 1016.3
20260507023002 33 162 2.0 7.0 0.00 0.01 0.01 84 1016.2
20260507022459 33 166 5.0 5.0 0.00 0.01 0.01 84 1016.2
20260507021954 33 166 6.0 6.0 0.00 0.01 0.01 84 1016.3
20260507021450 33 164 7.0 7.0 0.00 0.01 0.01 84 1016.0
20260507020947 34 180 3.0 7.0 0.00 0.01 0.01 83 1016.2
20260507020444 34 173 5.0 6.0 0.00 0.01 0.01 81 1016.1
20260507015941 34 159 5.0 7.0 0.00 0.01 0.01 80 1016.1
20260507015439 34 191 6.0 8.0 0.00 0.01 0.01 79 1016.0
20260507014936 34 168 4.0 7.0 0.00 0.01 0.01 79 1016.0
20260507014433 35 185 3.0 7.0 0.00 0.01 0.01 79 1016.0
20260507013929 35 167 6.0 7.0 0.00 0.01 0.01 79 1016.1
20260507013426 35 208 3.0 7.0 0.00 0.01 0.01 79 1015.8
20260507012923 35 164 5.0 6.0 0.00 0.01 0.01 78 1016.0
20260507012420 35 174 5.0 6.0 0.00 0.01 0.01 78 1016.1
20260507011917 35 152 4.0 8.0 0.00 0.01 0.01 77 1015.8
20260507011414 35 137 4.0 5.0 0.00 0.01 0.01 77 1016.2
20260507010913 35 154 2.0 6.0 0.00 0.01 0.01 77 1016.0
20260507010409 35 157 7.0 8.0 0.00 0.01 0.01 77 1016.0
20260507005906 35 142 3.0 6.0 0.00 0.01 0.01 76 1015.8
20260507005403 35 173 5.0 7.0 0.00 0.01 0.01 76 1016.1
20260507004900 35 144 4.0 9.0 0.00 0.01 0.01 76 1016.0
20260507004357 36 165 3.0 8.0 0.00 0.01 0.01 75 1015.7
20260507003854 36 175 6.0 9.0 0.00 0.01 0.01 75 1015.7
20260507003349 36 89 2.0 7.0 0.00 0.01 0.01 73 1015.6
20260507002844 36 199 4.0 10.0 0.00 0.01 0.01 73 1015.7
20260507002341 37 154 3.0 7.0 0.00 0.01 0.01 73 1015.6
20260507001838 37 153 6.0 8.0 0.00 0.01 0.01 70 1015.7
20260507001335 37 147 6.0 10.0 0.00 0.01 0.01 69 1015.7
20260507000831 37 164 4.0 9.0 0.00 0.01 0.01 69 1015.6
20260507000328 37 162 6.0 9.0 0.00 0.01 0.01 69 1015.7
20260506235824 37 151 5.0 9.0 0.00 0.01 0.01 69 1015.8
20260506235320 37 178 4.0 6.0 0.00 0.01 0.01 69 1015.6
20260506234816 38 169 4.0 7.0 0.00 0.01 0.01 68 1015.7
20260506234314 39 184 5.0 8.0 0.00 0.01 0.01 67 1015.5
20260506233812 38 172 6.0 8.0 0.00 0.01 0.01 68 1015.7
20260506233307 37 177 4.0 7.0 0.00 0.01 0.01 69 1015.6
20260506232805 38 168 3.0 9.0 0.00 0.01 0.01 67 1015.7
20260506232300 38 145 3.0 5.0 0.00 0.01 0.01 67 1015.6
20260506231757 38 162 2.0 12.0 0.00 0.01 0.01 66 1015.7
20260506231255 38 166 2.0 5.0 0.00 0.01 0.01 65 1015.7
20260506230752 39 160 3.0 3.0 0.00 0.01 0.01 63 1015.7
20260506230249 38 100 2.0 5.0 0.00 0.01 0.01 65 1015.5
20260506225745 38 203 1.0 3.0 0.00 0.01 0.01 66 1015.6
20260506225242 38 267 2.0 4.0 0.00 0.01 0.01 65 1015.6
20260506224738 38 168 5.0 6.0 0.00 0.01 0.01 63 1015.4
20260506224236 39 240 2.0 2.0 0.00 0.01 0.01 63 1015.5
20260506223732 39 208 0.0 2.0 0.00 0.01 0.01 65 1015.6
20260506223228 38 7 2.0 4.0 0.00 0.01 0.01 64 1015.5
20260506222725 38 330 2.0 4.0 0.00 0.01 0.01 65 1015.7
20260506222220 38 190 1.0 3.0 0.00 0.01 0.01 63 1015.5
20260506221719 38 160 3.0 3.0 0.00 0.01 0.01 64 1015.5
20260506221217 38 185 0.0 3.0 0.00 0.01 0.01 67 1015.7
20260506220714 38 268 1.0 5.0 0.00 0.01 0.01 63 1015.5
20260506220208 39 269 0.0 2.0 0.00 0.01 0.01 63 1015.7
20260506215705 37 11 3.0 5.0 0.00 0.01 0.01 67 1015.5
20260506215200 37 12 4.0 4.0 0.00 0.01 0.01 68 1015.6
20260506214657 36 4 3.0 7.0 0.00 0.01 0.01 70 1015.8
20260506214155 37 0 6.0 8.0 0.00 0.01 0.01 68 1015.8
20260506213653 37 359 6.0 6.0 0.00 0.01 0.01 67 1015.8
20260506213150 36 322 4.0 7.0 0.00 0.01 0.01 68 1015.8
20260506212647 40 297 2.0 5.0 0.00 0.01 0.01 66 1015.6
20260506212142 37 9 5.0 11.0 0.00 0.01 0.01 70 1015.6
20260506211638 37 349 5.0 8.0 0.00 0.01 0.01 68 1015.8
20260506211135 38 0 5.0 7.0 0.00 0.01 0.01 74 1015.7
20260506210632 38 2 4.0 8.0 0.00 0.01 0.01 70 1015.8
20260506210128 37 303 6.0 6.0 0.00 0.01 0.01 70 1016.0
20260506205625 36 288 2.0 6.0 0.00 0.01 0.01 72 1015.7
20260506205120 35 355 3.0 6.0 0.00 0.01 0.01 73 1015.8
20260506204618 35 311 3.0 7.0 0.00 0.01 0.01 75 1015.6
20260506204115 35 0 6.0 7.0 0.00 0.01 0.01 73 1015.6
20260506203613 36 355 7.0 7.0 0.00 0.01 0.01 75 1016.0
20260506203109 35 48 8.0 8.0 0.00 0.01 0.01 76 1016.1
20260506202608 36 350 6.0 15.0 0.00 0.01 0.01 75 1015.8
20260506202103 35 2 6.0 12.0 0.00 0.01 0.01 79 1016.2
20260506201601 35 66 6.0 9.0 0.00 0.01 0.01 78 1016.0
20260506201057 34 346 7.0 9.0 0.00 0.01 0.01 80 1016.0
20260506200554 35 26 7.0 8.0 0.00 0.01 0.01 79 1016.0
20260506200051 35 14 4.0 10.0 0.00 0.01 0.01 80 1015.8
20260506195547 35 357 5.0 9.0 0.00 0.01 0.01 77 1015.8
20260506195043 34 351 7.0 11.0 0.00 0.01 0.01 78 1015.7
20260506194541 35 359 7.0 9.0 0.00 0.01 0.01 82 1015.8
20260506194037 35 297 2.0 8.0 0.00 0.01 0.01 82 1015.8
20260506193535 35 9 5.0 6.0 0.00 0.01 0.01 81 1015.6
20260506193032 34 359 5.0 7.0 0.02 0.01 0.01 76 1015.6
20260506192529 34 339 7.0 11.0 0.02 0.01 0.01 78 1015.7
20260506192025 34 319 5.0 6.0 0.02 0.01 0.01 81 1015.6